TimeEDT,TemperatureF,Dew PointF,Humidity,Sea Level PressureIn,VisibilityMPH,Wind Direction,Wind SpeedMPH,Gust SpeedMPH,PrecipitationIn,Events,Conditions,WindDirDegrees,DateUTC
12:53 AM,55.9,51.1,84,29.97,10.0,SE,3.5,-,N/A,,Clear,130,2013-05-09 04:53:00
1:53 AM,57.9,53.1,84,29.95,9.0,Calm,Calm,-,N/A,,Clear,0,2013-05-09 05:53:00
2:53 AM,57.0,50.0,77,29.93,10.0,Calm,Calm,-,N/A,,Clear,0,2013-05-09 06:53:00
3:53 AM,55.9,51.1,84,29.93,8.0,Calm,Calm,-,N/A,,Clear,0,2013-05-09 07:53:00
4:53 AM,52.0,48.0,86,29.93,3.0,NE,4.6,-,N/A,,Clear,40,2013-05-09 08:53:00
5:53 AM,52.0,48.0,86,29.93,5.0,Calm,Calm,-,N/A,,Partly Cloudy,0,2013-05-09 09:53:00
6:05 AM,50.0,46.4,87,29.94,2.0,Calm,Calm,-,N/A,,Mostly Cloudy,0,2013-05-09 10:05:00
6:07 AM,50.0,46.4,87,29.94,0.8,Calm,Calm,-,N/A,,Mist,0,2013-05-09 10:07:00
6:19 AM,51.8,48.2,88,29.95,0.2,Calm,Calm,-,N/A,Fog,Fog,0,2013-05-09 10:19:00
6:29 AM,50.0,46.4,87,29.96,1.2,Calm,Calm,-,N/A,,Mostly Cloudy,0,2013-05-09 10:29:00
6:36 AM,50.0,46.4,87,29.96,2.0,Calm,Calm,-,N/A,,Scattered Clouds,0,2013-05-09 10:36:00
6:53 AM,48.9,45.0,86,29.96,7.0,Calm,Calm,-,N/A,,Partly Cloudy,0,2013-05-09 10:53:00
7:17 AM,53.6,48.2,82,29.97,2.5,Calm,Calm,-,N/A,,Clear,0,2013-05-09 11:17:00
7:53 AM,59.0,54.0,83,29.96,3.0,Calm,Calm,-,N/A,,Haze,0,2013-05-09 11:53:00
8:53 AM,66.0,54.0,65,29.96,8.0,NNE,3.5,-,N/A,,Clear,20,2013-05-09 12:53:00
9:53 AM,71.1,54.0,55,29.97,10.0,Calm,Calm,-,N/A,,Clear,0,2013-05-09 13:53:00
10:53 AM,75.0,55.0,50,29.97,10.0,Calm,Calm,-,N/A,,Clear,0,2013-05-09 14:53:00
11:53 AM,79.0,53.1,40,29.97,10.0,WSW,3.5,-,N/A,,Clear,250,2013-05-09 15:53:00
1:53 PM,80.1,46.0,30,29.96,10.0,Calm,Calm,-,N/A,,Scattered Clouds,0,2013-05-09 17:53:00
2:53 PM,81.0,48.9,33,29.94,10.0,Calm,Calm,-,N/A,,Overcast,0,2013-05-09 18:53:00
3:53 PM,82.0,48.0,30,29.92,10.0,South,4.6,-,N/A,,Partly Cloudy,170,2013-05-09 19:53:00
4:53 PM,79.0,51.1,38,29.91,10.0,SSE,11.5,-,N/A,,Partly Cloudy,160,2013-05-09 20:53:00
5:53 PM,79.0,50.0,36,29.90,10.0,SSE,10.4,-,N/A,,Clear,160,2013-05-09 21:53:00
6:53 PM,75.9,48.9,38,29.91,10.0,SE,9.2,-,N/A,,Partly Cloudy,140,2013-05-09 22:53:00
7:53 PM,72.0,48.9,44,29.90,10.0,SSE,6.9,-,N/A,,Clear,150,2013-05-09 23:53:00
8:53 PM,70.0,45.0,41,29.90,10.0,SSE,9.2,-,N/A,,Clear,150,2013-05-10 00:53:00
10:53 PM,68.0,48.0,49,29.91,10.0,Calm,Calm,-,N/A,,Overcast,0,2013-05-10 02:53:00
11:53 PM,66.0,51.1,59,29.89,10.0,ENE,5.8,-,N/A,,Overcast,70,2013-05-10 03:53:00